User: anonymous   Login
Location: Nirvana
(45.0297°N, 77.2628°W)
Time: 22:05:37
(UTC-04:00)
Language:

H-2A R/B - Orbit

View from above orbital plane
View from above orbital plane
View from above satellite
View from above satellite

Ground track
Ground track

The orbit data is extracted from the following two-line orbital elements,

1 27601U 02056E   17081.83195598 +.00000042 +00000-0 +30497-4 0  9997
2 27601 098.3848 152.5794 0072114 190.5903 305.7747 14.31769370745452
Epoch (UTC): 22 March 2017 19:58:00
Eccentricity: 0.0072114
inclination: 98.3848°
perigee height: 734 km
apogee height: 837 km
right ascension of ascending node: 152.5794°
argument of perigee: 190.5903°
revolutions per day: 14.31769370
mean anomaly at epoch: 305.7747°
orbit number at epoch: 74545

The dashed part of the orbit path shows where the satellite is in the earth's shadow,  

DLR